Location: LDNL
(36.4545°S, 141.6685°E)
Time: 12:46:03
(UTC+11:00)

ISS - Pass Details

Date: 08 December 2021
Orbit: 413 x 422 km, 51.6° (Epoch: 26 January)

Event Time Altitude Azimuth Distance (km) Brightness Sun altitude
Exits shadow 02:24:01 12° 204° (SSW) 1,400 -0.6 -29.2°
Maximum altitude 02:24:08 12° 201° (SSW) 1,399 -0.5 -29.2°
Drops below altitude 10° 02:25:30 10° 177° (S) 1,514 -0.1 -29.2°
Sets 02:28:46 0° 144° (SE) 2,384 1.1 -29.0°
